NOAA 16 DEB, 41279

Orbit data source: Space-Track

NOAA 16 DEB, 41279 is space debris in SSO originally from a launch on Thu, 21 Sep 2000 UTC launched from the Air Force Western Test Range (AFWTR). Debris objects in space refer to the collection of defunct objects orbiting the Earth. Examples of debris include non-operational satellites, rocket bodies, and fragments generated from explosions, collisions, or faulty payload assembly.

Loading next visibility...
Identifier
41279, 2000-055GF
Orbit
SSO
Country
Flag of USUS
Related business
Manufacturer
Unknown
Mission
Spacecraft
Bus & Motor
Unknown
Mass
Unknown
Launch date (UTC)
2000-09-21 (25 years ago)
Launch vehicle
Unknown
Launch site
Air Force Western Test Range (AFWTR)
Object type
Payload
Rocket body
Debris
Shape & HBR
Unknown shape, 0.1 m
Radar Cross Section
Small (<0.1 m²)

Expand to show TLE details & history
Last TLE update: 22 hours ago

TLE from 22 hours ago
0 NOAA 16 DEB
1 41279U 00055GF  25353.43685453  .00002085  00000-0  10654-2 0  9992
2 41279  98.7625  50.7181 0031197  70.5132 289.9408 14.16429760513316
Epoch: 2025-12-19T10:29Z
TLE epoch observation values (Epoch: 2025-12-19T10:29:04.231Z)
Latitude
-0.00003°
Longitude
165.17245°
Altitude
832.744 km
Speed
7.44 km/s
True Right ascension
03h 22m 52s
True Declination
0° 00' 00"
Sunlit
Object was in full shadow at epoch
Visualization orbit readout
Latitude
Unknown
Longitude
Unknown
Altitude
Unknown
Speed
Unknown
Apparent Right ascension
Unknown
Apparent Declination
Unknown
Sunlit
N/A
Visualization observer readout
Local Sidereal Time
07:32:27
Azimuth
Unknown
Elevation
Unknown
Doppler factor
Unknown
Orbital elements
Apogee altitude
857.12 km
Perigee altitude
812.117 km
Semi-major axis
7,212.755 km
Eccentricity
0.00312
Inclination
98.7625°
RAAN
50.7181°
Arg. of periapsis
70.5132°
True anomaly
289.6043°
Mean anomaly
289.9408°
Eccentric anomaly
289.77259°
Mean motion
3.54316 °/min
Orbital period
101.6 mins
BSTAR
0.0010654
Loading maneuver chart data...
Computing Atmospheric mass density...
Loading historical data...
Loading historical data...
Loading historical data...
Loading historical data...
Loading historical data...
Loading historical data...
Loading historical data...

Documentation

Showing up to 5 results
|